Livigno, Italy 16 day weather forecast

Slopes altitude range 1815 m - 2795m

Number of lifts: 30 Pistes: 115km

In some cases the lift and piste totals shown are for the ski domain (e.g. Three Valleys) rather than individual resort (e.g. Courchevel)

Overview

The 16 day weather forecast is fully updated 4 times every day.

    • Sat 18 AUG 2018
    • Sat 18
    • 8C 13C
    • Sun 19 AUG 2018
    • Sun 19
    • 9C 13C
    • Mon 20 AUG 2018
    • Mon 20
    • 9C 13C
    • Tue 21 AUG 2018
    • Tue 21
    • 9C 13C
    • Wed 22 AUG 2018
    • Wed 22
    • 9C 14C
    • Thu 23 AUG 2018
    • Thu 23
    • 9C 13C
    • Fri 24 AUG 2018
    • Fri 24
    • 9C 13C
    • Sat 25 AUG 2018
    • Sat 25
    • 6C 9C
    • Sun 26 AUG 2018
    • Sun 26
    • 5C 9C
    • Mon 27 AUG 2018
    • Mon 27
    • 5C 15C
    • Tue 28 AUG 2018
    • Tue 28
    • 10C 20C
    • Wed 29 AUG 2018
    • Wed 29
    • 11C 21C
    • Thu 30 AUG 2018
    • Thu 30
    • 13C 23C
    • Fri 31 AUG 2018
    • Fri 31
    • 12C 18C
    • Sat 01 SEP 2018
    • Sat 01
    • 11C 19C
    • Sun 02 SEP 2018
    • Sun 02
    • 9C 12C

Date:

Time Type 0°C level Temp Chill Snow Cloud Speed Gust Dir Press
12:00 3931m 13°C 13_6 0cm 94% 6mph 6mph 1019mB
15:00 3978m 13°C 13_5 0cm 100% 5mph 5mph 1019mB
18:00 3984m 13°C 13_3 0cm 100% 3mph 3mph 1020mB
21:00 4052m 9°C 9_3 0cm 100% 3mph 3mph 1022mB
0:00 4036m 8°C 8_2 0cm 100% 2mph 3mph 1023mB
3:00 4023m 6°C 6_2 0cm 98% 2mph 2mph 1022mB
6:00 4008m 6°C 6_2 0cm 99% 2mph 2mph 1022mB
9:00 3987m 9°C 9_2 0cm 98% 2mph 2mph 1022mB
12:00 4092m 13°C 13_4 0cm 95% 4mph 3mph 1020mB
15:00 4140m 13°C 13_4 0cm 96% 4mph 4mph 1020mB
18:00 4132m 13°C 13_4 0cm 98% 4mph 4mph 1021mB
21:00 4110m 8°C 8_5 0cm 100% 5mph 6mph 1022mB
0:00 4098m 6°C 6_2 0cm 84% 2mph 3mph 1022mB
3:00 4103m 5°C 5_2 0cm 1% 2mph 3mph 1021mB
6:00 4120m 5°C 5_3 0cm 5% 3mph 3mph 1021mB
9:00 4143m 9°C 9_2 0cm 18% 2mph 3mph 1020mB
12:00 4183m 13°C 13_3 0cm 51% 3mph 4mph 1019mB
15:00 4232m 13°C 13_4 0cm 93% 4mph 5mph 1018mB
18:00 4248m 13°C 13_6 0cm 96% 6mph 7mph 1019mB
21:00 4250m 9°C 9_7 0cm 100% 7mph 8mph 1021mB
0:00 4228m 8°C 8_4 0cm 91% 4mph 5mph 1021mB
3:00 4203m 6°C 6_2 0cm 20% 2mph 3mph 1021mB
6:00 4187m 5°C 5_2 0cm 18% 2mph 2mph 1021mB
9:00 4166m 9°C 9_4 0cm 52% 4mph 4mph 1020mB
12:00 4193m 13°C 13_5 0cm 76% 5mph 4mph 1019mB
15:00 4270m 13°C 13_4 0cm 53% 4mph 4mph 1019mB
18:00 4265m 13°C 13_3 0cm 68% 3mph 4mph 1020mB
21:00 4244m 8°C 8_4 0cm 75% 4mph 5mph 1021mB
0:00 4230m 7°C 7_5 0cm 64% 5mph 6mph 1022mB
3:00 4187m 7°C 7_5 0cm 47% 5mph 6mph 1021mB
6:00 4182m 7°C 7_5 0cm 40% 5mph 6mph 1021mB
9:00 4168m 9°C 9_6 0cm 33% 6mph 6mph 1020mB
12:00 4266m 14°C 14_8 0cm 50% 8mph 8mph 1019mB
15:00 4245m 14°C 14_6 0cm 92% 6mph 6mph 1018mB
18:00 4188m 14°C 14_3 0cm 96% 3mph 3mph 1019mB
21:00 4183m 10°C 10_1 0cm 100% 1mph 2mph 1020mB
0:00 4175m 9°C 9_3 0cm 100% 3mph 3mph 1020mB
3:00 4130m 8°C 8_2 0cm 100% 2mph 2mph 1019mB
6:00 4086m 7°C 7_2 0cm 89% 2mph 2mph 1018mB
9:00 4117m 9°C 9_4 0cm 84% 4mph 4mph 1017mB
12:00 4121m 13°C 13_6 0cm 92% 6mph 6mph 1015mB
15:00 4064m 12°C 12_4 0cm 100% 4mph 4mph 1015mB
18:00 3963m 12°C 12_3 0cm 100% 3mph 3mph 1015mB
21:00 3998m 9°C 9_2 0cm 100% 2mph 3mph 1016mB
0:00 3997m 8°C 8_0 0cm 99% 0mph 1mph 1015mB
3:00 3986m 8°C 8_1 0cm 100% 1mph 2mph 1014mB
6:00 3933m 7°C 7_3 0cm 100% 3mph 3mph 1014mB
9:00 3921m 9°C 9_5 0cm 100% 5mph 6mph 1014mB
12:00 3877m 13°C 13_2 0cm 100% 2mph 2mph 1013mB
15:00 3928m 12°C 12_2 0cm 100% 2mph 3mph 1013mB
18:00 3862m 12°C 12_3 0cm 100% 3mph 4mph 1014mB
21:00 3796m 8°C 8_4 0cm 100% 4mph 4mph 1015mB
0:00 3684m 7°C 7_5 0cm 99% 5mph 5mph 1015mB
3:00 3594m 6°C 6_4 0cm 100% 4mph 4mph 1014mB
6:00 3556m 6°C 6_1 0cm 100% 1mph 2mph 1014mB
9:00 3531m 6°C 6_3 0cm 96% 3mph 4mph 1014mB
12:00 3612m 9°C 9_4 0cm 97% 4mph 5mph 1012mB
15:00 3638m 9°C 9_4 0cm 99% 4mph 4mph 1011mB
18:00 3631m 9°C 9_4 0cm 98% 4mph 5mph 1012mB
21:00 3297m 6°C 6_4 0cm 100% 4mph 6mph 1015mB
0:00 3264m 5°C 5_3 0cm 99% 3mph 4mph 1015mB
3:00 3264m 5°C 5_2 0cm 99% 2mph 3mph 1015mB
6:00 3180m 5°C 5_3 0cm 99% 3mph 4mph 1015mB
9:00 3036m 5°C 5_6 0cm 98% 6mph 7mph 1015mB
12:00 2952m 9°C 9_7 0cm 93% 7mph 7mph 1015mB
15:00 2971m 9°C 9_7 0cm 94% 7mph 8mph 1015mB
18:00 3058m 9°C 9_4 0cm 76% 4mph 5mph 1016mB
21:00 3232m 4°C 4_1 0cm 48% 1mph 2mph 1018mB
0:00 3274m 3°C 3_2 0cm 40% 2mph 3mph 1019mB
3:00 3162m 2°C 2_3 0cm 7% 3mph 4mph 1019mB
6:00 3284m 2°C 2_3 0cm 3% 3mph 4mph 1020mB
9:00 3288m 5°C 5_4 0cm 0% 4mph 4mph 1019mB
12:00 3293m 15°C 15_6 0cm 0% 6mph 4mph 1018mB
15:00 3443m 15°C 15_7 0cm 0% 7mph 6mph 1018mB
18:00 3580m 15°C 15_3 0cm 0% 3mph 4mph 1019mB
21:00 3849m 6°C 6_3 0cm 3% 3mph 4mph 1022mB
0:00 3959m 5°C 5_4 0cm 3% 4mph 5mph 1022mB
3:00 4000m 5°C 5_4 0cm 0% 4mph 5mph 1022mB
6:00 4125m 5°C 5_5 0cm 0% 5mph 5mph 1022mB
Afternoon 0mm 0 4294m 20°C 20_3 0cm 9% 3mph 4mph 1020mB
Morning 0mm 0 4444m 9°C 9_6 0cm 1% 6mph 7mph 1022mB
Afternoon 0.0260417mm 0.3125 4352m 21°C 21_2 0cm 32% 2mph 3mph 1021mB
Morning 0.0677083mm 0.8125 4334m 11°C 11_5 0cm 86% 5mph 6mph 1022mB
Afternoon 0.9375mm 11.25 4243m 23°C 23_1 0cm 81% 1mph 2mph 1020mB
Morning 0.541667mm 6.5 3943m 9°C 9_1 0cm 63% 1mph 0mph 1021mB
Afternoon 0.614583mm 7.125 4005m 18°C 18_5 0cm 68% 5mph 10mph 1019mB
Morning 0.078125mm 0.9375 3948m 8°C 8_4 0cm 71% 4mph 5mph 1018mB
Afternoon 0.807292mm 8.625 3883m 19°C 19_1 0cm 48% 1mph 2mph 1013mB
Morning 0.536458mm 3.375 3669m 10°C 10_6 0cm 99% 6mph 10mph 1009mB
Afternoon 3.29167mm 3.375 3799m 12°C 12_5 0cm 100% 5mph 8mph 1004mB
Morning 4.5625mm 0.0625 2593m 3°C 3_7 0cm 100% 7mph 13mph 1006mB

16 day outlook at a glance

Forecast issued: 18/08/2018 18:54:04

Chat

Your comments and questions. In a resort? Let us know what it's like!


Characters left 250

For terms and conditions see Readers Comments on the Cookie and privacy policy page.